User: anonymous   Login
Location: Caltech
(34.1382°N, 118.1253°W)
Time: 02:37:25
(UTC-07:00)
Language:

PAYLOAD A - Orbit

View from above orbital plane
View from above orbital plane
View from above satellite
View from above satellite

Ground track
Ground track

The orbit data is extracted from the following two-line orbital elements,

1 27840U 03031A   14293.80484694  .00000103  00000-0  44821-4 0  6781
2 27840 098.2265 317.3354 0099163 163.3936 286.8350 14.38732860593775
Epoch (UTC): 20 October 2014 19:18:58
Eccentricity: 0.0099163
inclination: 98.2265°
perigee height: 692 km
apogee height: 833 km
right ascension of ascending node: 317.3354°
argument of perigee: 163.3936°
revolutions per day: 14.38732860
mean anomaly at epoch: 286.8350°
orbit number at epoch: 59377

The dashed part of the orbit path shows where the satellite is in the earth's shadow,  

DLR